Lexington Weather

Lexington, Massachusetts, USA

36°F
1/28/2020 6:22am 
  • Lexington Conditions: Overcast
  • Temperature: 36.0°F / 2.2°CColder 0.1°F than last hour.
  • Dew Point: 29.5°FDecreased 0.2°Fsince last hour.
  • Relative Humidity: 77
  • Wind: Wind from NW NW 1 mph, 10-min avg: 1 mph, gust: 4 mph
  • Barometer: 29.65 in Steady
  • Visibility: 10 miles
  • Rain Today: 0.00 in
  •   

Regional Weather Roundup
for Boston / Norton, MA

        
000
ASUS41 KBOX 251900
RWRBOX

REGIONAL WEATHER ROUNDUP
NATIONAL WEATHER SERVICE BOSTON/NORTON MA
200 PM EST SAT JAN 25 2020

NOTE:  "FAIR" INDICATES FEW OR NO CLOUDS BELOW 12,000 FEET WITH NO 
SIGNIFICANT WEATHER AND/OR OBSTRUCTIONS TO VISIBILITY.

MAZALL-252000-
EASTERN MASSACHUSETTS
  
CITY           SKY/WX    TMP DP  RH WIND       PRES   REMARKS
BOSTON         CLOUDY    45  39  79 E14       30.10F                  
BEVERLY        CLOUDY    43  38  82 E10       30.11F                  
LAWRENCE       CLOUDY    40  37  89 NE10      30.13F                  
BEDFORD        CLOUDY    42  39  89 E14       30.08F FOG              
BLUE HILL        N/A     41  39  93 E15G28    30.05F                  
NORWOOD        CLOUDY    47  39  74 E10       30.08F                  
MARSHFIELD     NOT AVBL                                               
PLYMOUTH       CLOUDY    44  41  89 E12       30.08F                  
TAUNTON        CLOUDY    45  40  82 E12G18    30.07F                  
NEW BEDFORD    CLOUDY    46  40  79 E10       30.06F                  
$$

MAZALL-252000-
CAPE COD AND THE ISLANDS
  
CITY           SKY/WX    TMP DP  RH WIND       PRES   REMARKS
FALMOUTH       CLOUDY    48  41  76 E12G25    30.07F                  
HYANNIS        NOT AVBL                                               
CHATHAM        CLOUDY    47  42  83 E13G21    30.10F                  
PROVINCETOWN   CLOUDY    47  42  83 E14G21    30.11F                  
NANTUCKET      CLOUDY    48  42  80 E17G28    30.05F                  
MARTHAS VNYRD  CLOUDY    45  41  86 E14       30.05F                  
$$
 
MAZALL-252000-
CENTRAL AND WESTERN MASSACHUSETTS
  
CITY           SKY/WX    TMP DP  RH WIND       PRES   REMARKS
WORCESTER      FOG       37  36  96 NE10G23   30.03F VSB<1/4 WCI  30  
FITCHBURG      CLOUDY    37  34  89 VRB6      30.09F FOG              
ORANGE         CLOUDY    39  35  86 E13G20    30.04F FOG     WCI  31  
SPRINGFIELD    NOT AVBL                                               
WESTFIELD      CLOUDY    39  36  89 N9        29.98F                  
NORTH ADAMS    LGT RAIN  38  32  79 E22G29    29.93F WCI  27          
PITTSFIELD     MIX PCPN  37  33  85 E12G25    29.90F FOG     WCI  29  
$$
 
RIZALL-252000-
RHODE ISLAND
  
CITY           SKY/WX    TMP DP  RH WIND       PRES   REMARKS
PROVIDENCE     CLOUDY    46  40  79 E13       30.05F                  
NEWPORT        CLOUDY    46  41  82 E15       30.03F                  
BLOCK ISLAND   CLOUDY    43  42  97 E16G24    30.00F FOG              
SMITHFIELD     CLOUDY    42  40  92 E10G20    30.04F                  
WESTERLY       CLOUDY    48  41  76 E16G29    30.01F                  
$$
 
CTZALL-252000-
CONNECTICUT
  
CITY           SKY/WX    TMP DP  RH WIND       PRES   REMARKS
BRADLEY INTL   LGT RAIN  39  37  92 N9        29.97F                  
HARTFORD       CLOUDY    44  39  82 E8        29.95F                  
BRIDGEPORT     CLOUDY    42  40  92 E25G36    29.88F FOG              
DANBURY        LGT RAIN  41  39  93 E12       29.86F FOG              
GROTON         NOT AVBL                                               
NEW HAVEN      CLOUDY    46  43  89 E23G37    29.90F FOG              
CHESTER        NOT AVBL                                               
MERIDEN        CLOUDY    43  40  89 E8        29.92F                  
WILLIMANTIC    CLOUDY    44  39  82 E12       30.01F                  
OXFORD         LGT RAIN  40  39  97 E15G23    29.89F FOG     WCI  32  
$$

MEZ002-015-021-024-NHZ003-005-008-011-012-014-VTZ005-008-252000-
NORTHERN NEW ENGLAND
  
CITY           SKY/WX    TMP DP  RH WIND       PRES   REMARKS
PORTLAND ME    CLOUDY    40  33  76 E10       30.21F                  
BANGOR ME      CLOUDY    37  30  75 SE9       30.28F WCI  30          
CONCORD NH     CLOUDY    36  31  82 E10       30.13F WCI  28          
MANCHESTER NH  CLOUDY    37  34  89 NE9       30.12F WCI  30          
NASHUA NH      CLOUDY    37  37 100 VRB6      30.12F FOG              
PORTSMOUTH NH  CLOUDY    40  37  87 E12       30.14F                  
JAFFREY NH     CLOUDY    35  33  92 VRB6      30.06F FOG     WCI  30  
KEENE NH       CLOUDY    37  34  89 NE9       30.05F WCI  30          
BURLINGTON VT  PTSUNNY   40  28  62 E8        30.00F                  
MT. WASHINGTON PTSUNNY   27   3  36 SE56        N/A  WCI   6          
$$

NYZ052-076-252000-
EASTERN NEW YORK
  
CITY           SKY/WX    TMP DP  RH WIND       PRES   REMARKS
ALBANY         LGT RAIN  39  31  72 NW6       29.91F                  
NEW YORK CITY  RAIN      50  47  89 SE30G36   29.78F FOG              
$$
 
ANZALL-252000-
MARINE OBSERVATIONS
  
STATION/POSITION TIME  TEMP    WIND        PRES    VSBY  WAVE
                       AIR SEA DIR/SP/G                  HT/PER
                 (UTC) (F)     (DEG/KT/KT) (MB)    (MI)  (FT/S)
BOSTON BUOY      1750   43 43   70/ 16/ 17 1019.9          4/ 5
BUZZARDS BAY     1800   42      60/ 21/ 22 1018.2F
NANTUCKET SOUND  1820                        N/A
MASS BAY-STELLWA 1804   42 41  110/ 16/ 19 1018.8F  1 7/8  4/ 5
ISLE OF SHOALS   1800   41      80/ 19/ 22 1021.0F
S OF BLOCK IS    1830      45                N/A           7/ 6
$$

......................KEY.........................
  SKY/WX - SKY CONDITION/PRESENT WEATHER
  TMP    - TEMPERATURE IN FAHRENHEIT
  DWPT   - DEWPOINT IN FAHRENHEIT
  RH     - RELATIVE HUMIDITY IN PERCENT
  WIND   - DIRECTION AND SPEED IN MPH
  PRES   - MEAN SEA LEVEL PRESSURE IN INCHES OF HG
  WCI    - WIND CHILL INDEX
  VSB    - VISIBILITY IN MILES
  HX     - HEAT INDEX
  TC     - TEMPERATURE IN CELSIUS
  VRB    - VARIABLE WIND DIRECTION
  N/A    - NOT AVAILABLE
  
      

Other recent Regional Weather Roundups

Tue Jan 28, 6:10am

Tue Jan 28, 6:01am

Tue Jan 28, 5:10am

Tue Jan 28, 5:00am

Tue Jan 28, 4:10am

Tue Jan 28, 4:00am

Tue Jan 28, 3:10am

Tue Jan 28, 3:01am

Tue Jan 28, 2:10am

Tue Jan 28, 2:00am

Tue Jan 28, 1:10am

Tue Jan 28, 1:00am

Tue Jan 28, 12:10am

Tue Jan 28, 12:01am

Mon Jan 27, 11:10pm

Mon Jan 27, 11:00pm

Mon Jan 27, 10:10pm

Mon Jan 27, 10:00pm

Mon Jan 27, 9:10pm

Mon Jan 27, 9:00pm

Mon Jan 27, 8:10pm

Mon Jan 27, 8:01pm

Mon Jan 27, 7:10pm

Mon Jan 27, 7:00pm

Mon Jan 27, 6:10pm

Mon Jan 27, 6:00pm

Mon Jan 27, 5:10pm

Mon Jan 27, 5:00pm

Mon Jan 27, 4:10pm

Mon Jan 27, 4:00pm

Mon Jan 27, 3:10pm

Mon Jan 27, 3:00pm

Mon Jan 27, 2:10pm

Mon Jan 27, 2:00pm

Mon Jan 27, 1:10pm

Mon Jan 27, 1:00pm

Mon Jan 27, 12:10pm

Mon Jan 27, 12:00pm

Mon Jan 27, 11:10am

Mon Jan 27, 11:01am

Mon Jan 27, 10:10am

Mon Jan 27, 10:00am

Mon Jan 27, 9:10am

Mon Jan 27, 9:00am

Mon Jan 27, 8:10am

Mon Jan 27, 8:00am

Mon Jan 27, 7:10am

Mon Jan 27, 7:00am

Mon Jan 27, 6:10am

Mon Jan 27, 6:00am

Mon Jan 27, 5:10am

Mon Jan 27, 5:00am

Mon Jan 27, 4:10am

Mon Jan 27, 4:01am

Mon Jan 27, 3:10am

Mon Jan 27, 3:00am

Mon Jan 27, 2:10am

Mon Jan 27, 2:00am

Mon Jan 27, 1:10am

Mon Jan 27, 1:00am

Mon Jan 27, 12:10am

Mon Jan 27, 12:00am

Sun Jan 26, 11:10pm

Sun Jan 26, 11:00pm

Sun Jan 26, 10:10pm

Sun Jan 26, 10:00pm

Sun Jan 26, 9:10pm

Sun Jan 26, 9:01pm

Sun Jan 26, 8:10pm

Sun Jan 26, 8:00pm

Sun Jan 26, 7:10pm

Sun Jan 26, 7:00pm

Sun Jan 26, 6:10pm

Sun Jan 26, 6:01pm

Sun Jan 26, 5:10pm

Sun Jan 26, 5:01pm

Sun Jan 26, 4:10pm

Sun Jan 26, 4:00pm

Sun Jan 26, 3:10pm

Sun Jan 26, 3:01pm

Sun Jan 26, 2:10pm

Sun Jan 26, 2:01pm

Sun Jan 26, 1:10pm

Sun Jan 26, 1:00pm

Sun Jan 26, 12:10pm

Sun Jan 26, 12:00pm

Sun Jan 26, 11:10am

Sun Jan 26, 11:01am

Sun Jan 26, 10:10am

Sun Jan 26, 10:01am

Sun Jan 26, 9:10am

Sun Jan 26, 9:00am

Sun Jan 26, 8:10am

Sun Jan 26, 8:00am

Sun Jan 26, 7:10am

Sun Jan 26, 7:00am

Sun Jan 26, 6:10am

Sun Jan 26, 6:00am

Sun Jan 26, 5:10am

Sun Jan 26, 5:00am

Sun Jan 26, 4:10am

Sun Jan 26, 4:01am

Sun Jan 26, 3:10am

Sun Jan 26, 3:01am

Sun Jan 26, 2:10am

Sun Jan 26, 2:00am

Sun Jan 26, 1:10am

Sun Jan 26, 1:00am

Sun Jan 26, 12:10am

Sun Jan 26, 12:00am

Sat Jan 25, 11:10pm

Sat Jan 25, 11:00pm

Sat Jan 25, 10:10pm

Sat Jan 25, 10:01pm

Sat Jan 25, 9:10pm

Sat Jan 25, 9:01pm

Sat Jan 25, 8:10pm

Sat Jan 25, 8:01pm

Sat Jan 25, 7:10pm

Sat Jan 25, 7:01pm

Sat Jan 25, 6:10pm

Sat Jan 25, 6:01pm

Sat Jan 25, 5:10pm

Sat Jan 25, 5:01pm

Sat Jan 25, 4:10pm

Sat Jan 25, 4:00pm

Sat Jan 25, 3:10pm

Sat Jan 25, 3:01pm

Sat Jan 25, 2:10pm

Sat Jan 25, 1:10pm

Sat Jan 25, 1:00pm

Sat Jan 25, 12:10pm

Sat Jan 25, 12:00pm

Sat Jan 25, 11:10am

Sat Jan 25, 11:00am

Sat Jan 25, 10:10am

Sat Jan 25, 10:00am

Sat Jan 25, 9:10am

Sat Jan 25, 9:00am

Sat Jan 25, 8:10am

Sat Jan 25, 8:01am

Sat Jan 25, 7:10am

Sat Jan 25, 7:00am

Meta data:

ID: 16b8c9bc-a770-498c-803e-14756d2e8d2e
Link: https://api.weather.gov/products/16b8c9bc-a770-498c-803e-14756d2e8d2e